Starlink 2566

operational
NORAD ID: 48287 Int'l Des: 2021-036 Owner: SPXS Country: US Constellation: starlink
LEOCIRCULARSTARLINK_TYPE

Über Starlink 2566

Beschreibung wird geladen...

Live-Position

3D-Globus wird geladen...

Nächste Überflüge

Höhenverlauf

Altitude vs Time

uPlot chart will show altitude changes over time

Zweizeiliger Elementsatz

1 48287U 21036M 25353.63573885 .00003577 00000-0 25885-3 0 9997
2 48287 53.0547 80.9965 0001271 81.6324 278.4809 15.06410411256247
Epoch: 19. Dez. 2025 • Age: 10 hours

Aktueller Status

Höhe 547.1 km
Geschwindigkeit 7.59 km/s
Subsatellitenpunkt 8.27°N, 16.28°W
Startdatum 29. Apr. 2021
Alter 4.6 years
Typ internet

Technische Details

Klassifizierung Payload
Masse 260.00 kg
Trockenmasse 248.00 kg
Gesamtmasse 260.00 kg
Länge 0.20 m
Durchmesser 2.80 m
Spannweite 9.00 m
Form Box + pan
Hersteller SPXS
Bus-Typ Starlink
Phasenstatus In Orbit
Besitzer/Staat SPXS/US

Große Konstellationen

Loading constellations...